Regional Weather Roundup
Issued by NWS Midland/Odessa, TX

Skip options and go directly to product.
Home | Oldest Version | Previous Version | Current Version | All | Graphics & Text | Save Text | Print | Product List | Glossary On

Skip product version selection by date and time.   
546
ASUS44 KMAF 210110
RWRMAF
MIDLAND AREA WEATHER ROUNDUP
NATIONAL WEATHER SERVICE MIDLAND TX
700 PM CST SAT DEC 20 2014

...IN SOUTHWEST TEXAS AND SOUTHEAST NEW MEXICO...

CITY           SKY/WX    TMP DP  RH WIND       PRES   REMARKS
ALPINE         PTCLDY    44  27  51 SW3       30.12R
ANDREWS        FAIR      43  26  50 CALM      30.03S
ARTESIA        CLEAR     45  28  53 CALM      30.02R
BIG SPRING     CLEAR     46  41  84 SE8       30.08R
CARLSBAD       PTCLDY    48  28  46 CALM      30.00R
DRYDEN           N/A     50  47  89 SE8       30.07R
FORT STOCKTON  PTCLDY    52  42  69 SE10      30.04R
GUAD PASS      NOT AVBL
HOBBS          CLEAR     46  23  39 CALM      30.03R
MARFA          MOCLDY    43  25  49 W6        30.10R WCI  39
MIDLAND AIRPK  PTCLDY    51  43  73 SE7       30.05R
MIDLAND INTL   PTCLDY    50  40  68 SE8       30.04R
ODESSA         PTCLDY    51  35  54 S9        30.04R
PECOS          PTCLDY    53  28  38 SE5       30.02R
PRESIDIO       FAIR      55  33  42 CALM      30.03R
SEMINOLE       PTCLDY    45  28  53 CALM      30.04R
SNYDER         MOCLDY    47  41  80 SE7       30.08R
WINK           MOCLDY    49  26  41 SE9       30.01R
$$
...OTHER STATIONS IN TEXAS...

CITY           SKY/WX    TMP DP  RH WIND       PRES   REMARKS
ABILENE        CLOUDY    50  41  71 SE8       30.12R
AMARILLO       MOCLDY    42  35  76 S12       30.01S WCI  36
AUSTIN         CLOUDY    52  47  83 NE8       30.17R
BROWNSVILLE    CLOUDY    58  54  86 N10       30.11R
CORPUS CHRISTI CLOUDY    56  50  80 E7        30.15S
DALLAS FTW     MOCLDY    47  43  86 NE6       30.17S
DEL RIO        CLOUDY    55  47  74 SE13      30.11R
EL PASO        PTCLDY    51  26  37 CALM      30.05S
HOUSTON INT    CLOUDY    52  47  83 N3        30.17R
LUBBOCK        PTCLDY    38  34  85 SE9       30.03F WCI  31
SAN ANGELO     CLOUDY    52  44  74 SE7       30.08S
SAN ANTONIO    CLOUDY    53  43  68 E8        30.16R
WACO           CLOUDY    49  45  86 E6        30.18R
WICHITA FALLS  NOT AVBL
$$
...OTHER LOCATIONS IN NEW MEXICO...

CITY           SKY/WX    TMP DP  RH WIND       PRES   REMARKS
ALAMAGORDO     PTCLDY    43  25  49 NE6       30.07S WCI  39
ALBUQUERQUE    MOCLDY    40  26  57 CALM      30.10R
CANNON AFB     PTCLDY    40  18  40 W2        30.00R
CLOVIS         MOCLDY    39  18  41 SW5       30.00R WCI  36
HOLLOMAN AFB   PTCLDY    44  26  48 N3        30.06R
ROSWELL        CLEAR     45  26  47 S3        30.01R
RUIDOSO        CLEAR     36  16  44 W9        30.08F WCI  29
SANTA FE       CLEAR     31  23  72 NW6       30.06R WCI  25
TRUTH OR CONSE CLEAR     47  20  34 CALM      30.07R
TUCUMCARI      PTCLDY    40  22  48 NE5       29.97S WCI  37
$$

USA.gov is the U.S. government's official web portal to all federal, state and local government web resources and services.